Hlavní strana
METAR-TAF:

METAR-TAF

Letiště :

Olive Branch Airport

Olive Branch, Mississippi, Spojené státy americké

zeměpisná šířka: 34-58-44N, zeměpisná délka: 089-47-13W, výška: 122 m

Aktuální stav počasí

Zpráva byla vytvořena před 2 hodinami a 9 minutami, v 00:50 UTC
Bezvětří
Teplota 11°C
Vlhkost vzduchu 30%
Tlak 1022 hPa
Viditelnost: 16.1 km
Jasno

METAR: KOLV 220050Z 00000KT 10SM SKC 11/M06 A3017

Čas: 21:59 (02:59 UTC)


TAF: chybějící

Stav a předpovědi počasí z více než 4 000 letišť (zprávy METAR a TAF).

Červené a žluté tečky na mapě představují dostupné meteorologické stanice.

Když kurzor umístíte na tečku, zobrazí se název stanice.

Pak kliknutím zobrazíte stav a předpověď počasí.

Chcete-li změnit mapu, kliknutím na zelené tlačítko se znaménkem +mapu přiblížíte, kliknutím na zelené tlačítko se znaménkem – mapu oddálíte a kliknutím na zelené šipky přejdete na sousední mapy.


METAR-TAF: